TURKMENALEM52E/MONACOSAT

Last updated on Tue Dec 16 2025 00:02:50 GMT+0000 (Coordinated Universal Time)

1 40617U 15023A 25349.21141193 .00000125 00000+0 00000+0 0 9990 2 40617 0.0290 78.6043 0002701 184.1396 309.4984 1.00270553 39003
UTC large
Height (km)
Speed (km/s)
/
Latitude / Longitude
Inclination (degrees)
Orbital Period (minutes)
Azimuth
Elevation
Range (km)
Doppler Factor

Next 0 passes for location: London (51.5072 / 0.1276)

Sorry there are no passes over London.